{"data":{"norad_id":66019,"intl_designator":"2025-232Q","name":"STARLINK-35382","alt_names":[],"object_type":"PAYLOAD","status":"ACTIVE","operator":null,"country":"US","launch_date":"2025-10-16","launch_site_code":"AFETR","launch_vehicle":null,"mission":null,"orbit_class":"UNKNOWN","rcs_meters":null,"size_class":null,"mass_kg":null,"dimensions":null,"purposes":["comms"],"wikipedia_slug":null,"has_3d_model":false,"image_url":null,"decayed_at":null,"tle_current":{"epoch":"2026-09-20T05:25:35.979168Z","epoch_age_seconds":126785,"freshness":"FRESH","line1":"1 66019U 25232Q   26263.22611087  .00015325  00000+0  46368-3 0  9997","line2":"2 66019  53.1590 277.2069 0001417 101.3399 258.7763 15.34405448 53261","mean_motion":15.34405448,"eccentricity":0.0001417,"inclination_deg":53.159,"raan_deg":277.2069,"arg_perigee_deg":101.3399,"mean_anomaly_deg":258.7763,"bstar":0.00046368,"rev_number":5326,"period_min":93.847424869154,"perigee_km":461.71770288335,"apogee_km":463.65639241845,"semimajor_km":6840.8240476509,"source":"CELESTRAK","updated_at":"2026-09-21T09:00:35.771176Z"}}}